Location: Balagbag Mahabang Kahoy
(14.1562°N, 120.9200°E)
Time: 05:39:44
(UTC+00:00)

Uosat 12 SS-18 rocket - Pass Details

Date: 16 January 2026
Orbit: 578 x 1400 km, 64.6° (Epoch: 15 February)

Event Time Altitude Azimuth Distance (km) Brightness Sun altitude
Rises 21:20:44 0° 205° (SSW) 2,787 7.4 -15.4°
Reaches altitude 10° 21:22:51 10° 205° (SSW) 1,915 6.5 -14.9°
Maximum altitude 21:27:05 82° 292° (WNW) 643 4.0 -13.9°
Drops below altitude 10° 21:31:56 10° 21° (NNE) 2,190 6.9 -12.8°
Sets 21:34:30 0° 22° (NNE) 3,228 7.8 -12.2°
